User: anonymous   Login
Location: Barcelona
(41.3830°N, 2.1830°E)
Time: 00:46:00
(UTC+01:00)
Language:

Max Valier Satellite - Orbit

View from above orbital plane
View from above orbital plane
View from above satellite
View from above satellite

Ground track
Ground track

The orbit data is extracted from the following two-line orbital elements,

1 42778U 17036P   19078.46685697 +.00001009 +00000-0 +47401-4 0  9991
2 42778 097.3660 138.0965 0012625 176.9321 183.1995 15.21823028096360
Epoch (UTC): 19 March 2019 11:12:16
Eccentricity: 0.0012625
inclination: 97.3660°
perigee height: 491 km
apogee height: 509 km
right ascension of ascending node: 138.0965°
argument of perigee: 176.9321°
revolutions per day: 15.21823028
mean anomaly at epoch: 183.1995°
orbit number at epoch: 9636

The dashed part of the orbit path shows where the satellite is in the earth's shadow,  

DLR